Location: Rounton
(54.4000°N, 1.3500°W)
Time: 14:17:43
(UTC+00:00)

Transit 2A Rocket - Pass Details

Date: 30 November 2021
Orbit: 584 x 918 km, 66.7° (Epoch: 21 January)

Event Time Altitude Azimuth Distance (km) Brightness Sun altitude
Rises 12:39:15 0° 287° (WNW) 3,493 8.3 13.3°
Reaches altitude 10° 12:42:10 10° 300° (WNW) 2,586 7.6 13.2°
Maximum altitude 12:47:11 26° 356° (N) 1,729 6.4 13.0°
Drops below altitude 10° 12:52:16 10° 51° (NE) 2,617 7.3 12.9°
Sets 12:55:14 0° 64° (ENE) 3,544 8.1 12.7°
